Skip Page Navigation
NASA JPL Caltech
NASA Logo - Jet Propulsion Laboratory + View the NASA Portal
+ Near-Earth Object (NEO) Program
Search JPL
JPL Home Earth Solar System Stars & Galaxies Technology
JPL Solar System Dynamics
BODIES ORBITS EPHEMERIDES TOOLS PHYSICAL DATA DISCOVERY FAQ SITE MAP
JPL Small-Body Database Browser
Search: [ help ]  
16504 (1990 TR5)
Classification: Main-belt Asteroid          SPK-ID: 2016504
Ephemeris | Orbit Diagram | Orbital Elements | Physical Parameters | Discovery Circumstances ]

[ show orbit diagram ]
Orbital Elements at Epoch 2457000.5 (2014-Dec-09.0) TDB
Reference: JPL 13 (heliocentric ecliptic J2000)
 Element Value Uncertainty (1-sigma)   Units 
e .2551527672754165 6.6216e-08  
a 2.269352077508779 1.2118e-08 AU
q 1.690320615010199 1.4845e-07 AU
i 5.839734229068549 7.4982e-06 deg
node 234.8596749992233 6.5803e-05 deg
peri 98.45830290749701 6.7564e-05 deg
M 39.33934777564628 1.2858e-05 deg
tp 2456864.049258309614
(2014-Jul-25.54925831)
4.4582e-05 JED
period 1248.680259995281
3.42
1.0002e-05
2.738e-08
d
yr
n .2883043894690546 2.3093e-09 deg/d
Q 2.84838354000736 1.521e-08 AU
  Orbit Determination Parameters
   # obs. used (total)      690  
   data-arc span      8927 days (24.44 yr)  
   first obs. used      1990-09-18  
   last obs. used      2015-02-26  
   planetary ephem.      DE431  
   SB-pert. ephem.      SB431-BIG16  
   condition code      0  
   fit RMS      .56175  
   data source      ORB  
   producer      Otto Matic  
   solution date      2015-Apr-07 16:55:42  

Additional Information
 Earth MOID = .693427 AU 
 T_jup = 3.563 
[ show covariance matrix ]

Ephemeris | Orbit Diagram | Orbital Elements | Physical Parameters | Discovery Circumstances ]

Physical Parameter Table
Parameter Symbol Value Units Sigma Reference Notes
absolute magnitude H 15.0 mag n/a MPO309282  

16504 (1990 TR5)          Discovered 1990-Oct-09 by McNaught, R. H. at Siding Spring
Reference: 20000913/Numbers.arcLast Updated: 2004-04-19

Alternate Designations
 1990 TR5 = 1997 WZ 
Ephemeris | Orbit Diagram | Orbital Elements | Physical Parameters | Discovery Circumstances ]
ABOUT SSD CREDITS/AWARDS PRIVACY/COPYRIGHT GLOSSARY LINKS
FirstGov 2015-Sep-03 12:53 UT
(server date/time)  
NASA Home Page
Site Manager:   Ryan S. Park
Webmaster  Alan B. Chamberlin